CW5988 Weather Reports


time (UTC)temp
F
wind
direction
speed
knots
gust
knots
rain 1hr
in
rain 24hr
in
rain mn
in
humidity
%
barometer
mb
20260510075429 53 263 7.0 17.4 0.00 0.00 0.00 89 1014.7
20260510074933 53 256 9.6 22.6 0.00 0.00 0.00 89 1014.6
20260510074421 53 251 12.2 22.6 0.00 0.00 0.00 89 1014.6
20260510073926 53 228 9.6 20.0 0.00 0.00 0.00 89 1014.7
20260510073431 53 244 9.6 17.4 0.00 0.00 0.00 89 1014.7
20260510072937 53 348 7.8 20.9 0.00 0.00 0.00 88 1014.8
20260510072421 53 278 9.6 20.9 0.00 0.00 0.00 88 1014.9
20260510071949 53 177 7.8 15.6 0.00 0.00 0.00 88 1014.8
20260510071434 53 282 9.6 16.5 0.00 0.00 0.00 88 1014.9
20260510070922 53 264 7.0 16.5 0.00 0.00 0.00 88 1014.9
20260510070516 53 290 9.6 17.4 0.00 0.00 0.00 88 1014.8
20260510065953 53 251 6.1 20.0 0.00 0.00 0.00 88 1014.8
20260510065436 53 290 12.2 20.0 0.00 0.00 0.00 88 1014.7
20260510064940 53 269 8.7 19.1 0.00 0.00 0.00 88 1014.7
20260510064427 53 273 7.8 16.5 0.00 0.00 0.00 88 1014.7
20260510063933 53 236 5.2 15.6 0.00 0.00 0.00 88 1014.8
20260510063421 53 258 7.0 15.6 0.00 0.00 0.00 88 1014.8
20260510062927 53 286 6.1 13.9 0.00 0.00 0.00 88 1014.8
20260510062434 53 222 3.5 13.9 0.00 0.00 0.00 88 1014.8
20260510061922 53 270 7.0 15.6 0.00 0.00 0.00 88 1014.7
20260510061425 53 219 4.3 18.2 0.00 0.00 0.00 88 1014.8
20260510060930 53 270 8.7 18.2 0.00 0.00 0.00 88 1014.8
20260510060438 53 206 7.0 18.2 0.00 0.00 0.00 87 1014.7
20260510055927 53 273 8.7 18.2 0.00 0.00 0.00 87 1014.7
20260510055433 53 261 8.7 16.5 0.00 0.00 0.00 87 1014.7
20260510054922 53 219 8.7 16.5 0.00 0.00 0.00 87 1014.6
20260510054431 53 229 7.0 16.5 0.00 0.00 0.00 87 1014.7
20260510053932 53 257 6.1 17.4 0.00 0.00 0.00 87 1014.7
20260510053438 54 359 9.6 19.1 0.00 0.00 0.00 87 1014.7
20260510052924 54 256 9.6 19.1 0.00 0.00 0.00 87 1014.7
20260510052433 54 225 8.7 16.5 0.00 0.00 0.00 87 1014.7
20260510051922 54 205 6.1 16.5 0.00 0.00 0.00 87 1014.7
20260510051429 54 249 7.0 15.6 0.00 0.00 0.00 86 1014.7
20260510050935 54 271 8.7 18.2 0.00 0.00 0.00 87 1014.7
20260510050423 54 287 10.4 18.2 0.00 0.00 0.00 86 1014.7
20260510045922 54 256 9.6 18.2 0.00 0.00 0.00 86 1014.6
20260510045431 54 251 9.6 24.3 0.00 0.00 0.00 86 1014.6
20260510044938 54 271 10.4 24.3 0.00 0.00 0.00 86 1014.6
20260510044427 54 232 7.0 21.7 0.00 0.00 0.00 86 1014.5
20260510043933 54 280 9.6 21.7 0.00 0.00 0.00 86 1014.4
20260510043439 54 234 10.4 19.1 0.00 0.00 0.00 86 1014.4
20260510042925 54 258 9.6 17.4 0.00 0.00 0.00 86 1014.4
20260510042430 54 244 9.6 17.4 0.00 0.00 0.00 86 1014.3
20260510041934 54 244 7.8 19.1 0.00 0.00 0.00 86 1014.2
20260510041421 54 230 10.4 19.1 0.00 0.00 0.00 86 1014.0
20260510040929 54 242 8.7 20.9 0.00 0.00 0.00 86 1013.9
20260510040433 54 275 11.3 20.9 0.00 0.00 0.00 86 1013.8
20260510035940 54 256 10.4 18.2 0.00 0.00 0.00 86 1013.8
20260510035423 54 266 9.6 19.1 0.00 0.00 0.00 86 1013.9
20260510034950 54 290 10.4 19.1 0.00 0.00 0.00 86 1013.8
20260510034431 54 275 12.2 25.2 0.00 0.00 0.00 86 1013.8
20260510033939 55 282 10.4 25.2 0.00 0.00 0.00 86 1013.8
20260510033426 55 253 13.9 21.7 0.00 0.00 0.00 85 1013.6
20260510032931 55 268 11.3 21.7 0.00 0.00 0.00 85 1013.7
20260510032439 55 222 11.3 20.9 0.00 0.00 0.00 85 1013.8
20260510031927 55 289 13.9 25.2 0.00 0.00 0.00 85 1013.7
20260510031433 55 247 12.2 20.0 0.00 0.00 0.00 85 1013.6
20260510030920 55 283 9.6 22.6 0.00 0.00 0.00 85 1013.7
20260510030421 55 282 10.4 25.2 0.00 0.00 0.00 85 1013.5
20260510025928 55 263 11.3 24.3 0.00 0.00 0.00 85 1013.4
20260510025434 55 280 10.4 21.7 0.00 0.00 0.00 85 1013.5
20260510024940 55 280 13.0 25.2 0.00 0.00 0.00 85 1013.5
20260510024426 55 278 11.3 20.9 0.00 0.00 0.00 85 1013.4
20260510023933 55 276 11.3 23.5 0.00 0.00 0.00 85 1013.4
20260510023439 55 242 10.4 23.5 0.00 0.00 0.00 84 1013.3
20260510022941 55 254 8.7 25.2 0.00 0.00 0.00 84 1013.3
20260510022427 55 294 13.0 27.8 0.00 0.00 0.00 84 1013.4
20260510021933 55 275 13.0 27.8 0.00 0.00 0.00 84 1013.4
20260510021438 55 270 13.0 23.5 0.00 0.00 0.00 84 1013.4
20260510020925 55 275 13.0 27.8 0.00 0.00 0.00 84 1013.4
20260510020434 55 259 15.6 27.8 0.00 0.00 0.00 84 1013.4
20260510015922 56 224 13.9 23.5 0.00 0.00 0.00 83 1013.3
20260510015429 56 259 13.9 27.8 0.00 0.00 0.00 83 1013.2
20260510014932 56 266 13.9 28.7 0.00 0.00 0.00 83 1013.3
20260510014438 56 252 15.6 28.7 0.00 0.00 0.00 82 1013.2
20260510013925 56 268 13.9 26.9 0.00 0.00 0.00 82 1013.5
20260510013433 57 246 13.9 26.9 0.00 0.00 0.00 82 1013.3
20260510012939 57 262 16.5 26.9 0.00 0.00 0.00 81 1013.3
20260510012427 57 212 14.8 25.2 0.00 0.00 0.00 81 1013.4
20260510012001 58 239 10.4 23.5 0.00 0.00 0.00 81 1013.5
20260510011452 58 270 11.3 23.5 0.00 0.00 0.00 81 1013.5
20260510010940 58 285 14.8 26.1 0.00 0.00 0.00 81 1013.5
20260510010447 58 259 9.6 23.5 0.00 0.00 0.00 80 1013.5
20260510005931 58 251 13.9 23.5 0.00 0.00 0.00 80 1013.5
20260510005439 58 242 9.6 24.3 0.00 0.00 0.00 80 1013.6
20260510004945 58 274 10.4 24.3 0.00 0.00 0.00 79 1013.6
20260510004426 59 186 7.8 22.6 0.00 0.00 0.00 79 1013.7
20260510004001 59 227 10.4 22.6 0.00 0.00 0.00 79 1013.6
20260510003426 59 241 9.6 20.9 0.00 0.00 0.00 79 1013.7
20260510002934 59 271 9.6 20.9 0.00 0.00 0.00 79 1013.6
20260510002421 59 256 10.4 20.9 0.00 0.00 0.00 79 1013.8
20260510001929 59 238 11.3 21.7 0.00 0.00 0.00 79 1013.6
20260510001436 59 282 9.6 21.7 0.00 0.00 0.00 79 1013.7
20260510000923 59 189 10.4 22.6 0.00 0.00 0.00 79 1013.5
20260510000449 59 275 13.0 26.9 0.00 0.00 0.00 79 1013.5
20260509235935 59 247 11.3 26.9 0.00 0.00 0.00 79 1013.5
20260509235442 59 263 15.6 27.8 0.00 0.00 0.00 79 1013.5
20260509234926 59 263 13.0 27.8 0.00 0.00 0.00 79 1013.5
20260509234430 59 249 12.2 27.8 0.00 0.00 0.00 79 1013.7
20260509233939 59 256 13.9 26.9 0.00 0.00 0.00 79 1013.6
20260509233421 60 283 11.3 22.6 0.00 0.00 0.00 78 1013.7
20260509232928 59 177 12.2 26.1 0.00 0.00 0.00 79 1013.7
20260509232436 59 272 13.9 26.9 0.00 0.00 0.00 79 1013.7
20260509231922 59 258 13.9 26.1 0.00 0.00 0.00 78 1013.7
20260509231428 60 270 13.9 26.1 0.00 0.00 0.00 78 1013.8
20260509230954 60 264 13.9 23.5 0.00 0.00 0.00 78 1013.7
20260509230438 60 273 12.2 26.1 0.00 0.00 0.00 78 1013.9
20260509225921 60 294 15.6 26.1 0.00 0.00 0.00 78 1013.8
20260509225426 60 234 13.0 26.1 0.00 0.00 0.00 78 1013.9
20260509224932 60 268 13.9 26.1 0.00 0.00 0.00 78 1014.0
20260509224438 60 282 13.9 27.8 0.00 0.00 0.00 78 1014.0
20260509223923 60 302 12.2 27.8 0.00 0.00 0.00 78 1014.1
20260509223430 60 275 16.5 25.2 0.00 0.00 0.00 78 1014.2
20260509222937 61 214 12.2 23.5 0.00 0.00 0.00 77 1014.1
20260509222425 61 243 11.3 23.5 0.00 0.00 0.00 77 1014.2
20260509221929 60 280 13.9 28.7 0.00 0.00 0.00 78 1014.2
20260509221434 60 280 15.6 28.7 0.00 0.00 0.00 77 1014.2
20260509220921 61 273 11.3 29.5 0.00 0.00 0.00 78 1014.3
20260509220430 61 271 13.9 27.8 0.00 0.00 0.00 77 1014.2
20260509215937 60 299 13.9 27.8 0.00 0.00 0.00 77 1014.2
20260509215443 61 275 13.9 27.8 0.00 0.00 0.00 76 1014.3
20260509215000 61 280 14.8 27.8 0.00 0.00 0.00 77 1014.3
20260509214421 61 256 11.3 22.6 0.00 0.00 0.00 76 1014.4
20260509213930 61 266 10.4 22.6 0.00 0.00 0.00 77 1014.7
20260509213434 61 214 9.6 22.6 0.00 0.00 0.00 77 1014.7
20260509212937 61 314 9.6 23.5 0.00 0.00 0.00 78 1014.9
20260509212423 60 263 13.0 26.1 0.00 0.00 0.00 77 1014.8
20260509211928 60 259 12.2 26.1 0.00 0.00 0.00 77 1014.9
20260509211436 60 259 11.3 23.5 0.00 0.00 0.00 77 1015.0
20260509210925 60 270 13.0 22.6 0.00 0.00 0.00 77 1014.9
20260509210428 60 302 14.8 25.2 0.00 0.00 0.00 77 1015.0
20260509205935 60 244 14.8 25.2 0.00 0.00 0.00 78 1015.0
20260509205423 60 261 13.0 24.3 0.00 0.00 0.00 77 1015.1
20260509204933 60 300 11.3 22.6 0.00 0.00 0.00 77 1015.1
20260509204440 60 261 13.0 26.9 0.00 0.00 0.00 78 1015.3
20260509203928 60 237 14.8 26.9 0.00 0.00 0.00 78 1015.2
20260509203437 60 299 13.0 26.1 0.00 0.00 0.00 77 1015.3
20260509202924 60 283 13.0 26.1 0.00 0.00 0.00 77 1015.3
20260509202425 60 245 13.9 24.3 0.00 0.00 0.00 77 1015.4
20260509201931 60 257 15.6 24.3 0.00 0.00 0.00 77 1015.3
20260509201439 60 292 13.9 24.3 0.00 0.00 0.00 76 1015.4
20260509200925 61 320 10.4 18.2 0.00 0.00 0.00 76 1015.5
20260509200431 61 268 9.6 20.9 0.00 0.00 0.00 75 1015.5
20260509195939 61 303 9.6 20.9 0.00 0.00 0.00 75 1015.6
20260509195455 62 282 6.1 17.4 0.00 0.00 0.00 75 1015.6
20260509194936 62 243 9.6 16.5 0.00 0.00 0.00 74 1015.6
20260509194421 62 280 7.8 12.2 0.00 0.00 0.00 74 1015.7
20260509193947 62 328 5.2 13.0 0.00 0.00 0.00 74 1015.7
20260509193435 62 333 7.8 13.0 0.00 0.00 0.00 73 1015.7
20260509192920 62 313 3.5 8.7 0.00 0.00 0.00 73 1015.8
20260509192446 62 308 3.5 9.6 0.00 0.00 0.00 73 1015.9
20260509191927 62 336 5.2 9.6 0.00 0.00 0.00 73 1015.8
20260509191433 62 78 3.5 6.1 0.00 0.00 0.00 75 1015.8
20260509190938 61 268 4.3 11.3 0.00 0.00 0.00 75 1015.8
20260509190455 61 254 6.1 12.2 0.00 0.00 0.00 75 1015.8
20260509185931 61 280 7.0 11.3 0.00 0.00 0.00 75 1015.9
20260509185435 61 299 5.2 11.3 0.00 0.00 0.00 76 1015.9
20260509184942 60 88 6.1 11.3 0.00 0.00 0.00 76 1016.0
20260509184444 60 202 4.3 13.0 0.00 0.00 0.00 76 1016.1
20260509183928 60 305 6.1 13.0 0.00 0.00 0.00 76 1016.0
20260509183502 60 294 6.1 11.3 0.00 0.00 0.00 76 1016.1
20260509182958 61 268 3.5 9.6 0.00 0.00 0.00 76 1016.0
20260509182422 60 297 4.3 9.6 0.00 0.00 0.00 76 1016.0
20260509181929 60 313 6.1 11.3 0.00 0.00 0.00 76 1016.0
20260509181500 60 299 7.0 11.3 0.00 0.00 0.00 76 1016.1
20260509180945 60 300 5.2 9.6 0.00 0.00 0.00 77 1016.1
20260509180428 60 280 5.2 9.6 0.00 0.00 0.00 77 1016.1
20260509175934 59 249 4.3 8.7 0.00 0.00 0.00 78 1016.1
20260509175420 59 330 5.2 8.7 0.00 0.00 0.00 78 1016.1
20260509174925 59 292 2.6 8.7 0.00 0.00 0.00 78 1016.2
20260509174449 59 322 5.2 9.6 0.00 0.00 0.00 78 1016.2
20260509173934 58 321 6.1 11.3 0.00 0.00 0.00 78 1016.2
20260509173437 58 294 5.2 11.3 0.00 0.00 0.00 78 1016.2
20260509172922 58 277 5.2 8.7 0.00 0.00 0.00 78 1016.1
20260509172430 57 258 3.5 8.7 0.00 0.00 0.00 80 1016.1
20260509172002 57 233 5.2 11.3 0.00 0.00 0.00 80 1016.1
20260509171451 57 229 5.2 11.3 0.00 0.00 0.00 79 1016.1
20260509170939 57 217 5.2 10.4 0.00 0.00 0.00 79 1016.1
20260509170423 58 236 2.6 8.7 0.00 0.00 0.00 78 1016.1
20260509165958 58 222 2.6 7.8 0.00 0.00 0.00 79 1016.1
20260509165422 58 268 1.7 7.8 0.00 0.00 0.00 79 1016.0
20260509164928 58 219 3.5 8.7 0.00 0.00 0.00 79 1016.1
20260509164435 58 211 5.2 8.7 0.00 0.00 0.00 79 1016.1
20260509163922 58 222 4.3 7.0 0.00 0.00 0.00 79 1016.0
20260509163426 58 222 3.5 7.0 0.00 0.00 0.00 79 1016.1
20260509162933 58 310 3.5 7.0 0.00 0.00 0.00 80 1016.1
20260509162439 58 256 2.6 7.0 0.00 0.00 0.00 81 1016.0
20260509161925 57 254 3.5 7.0 0.00 0.00 0.00 81 1016.0
20260509161452 57 276 3.5 7.0 0.00 0.00 0.00 82 1016.1
20260509160937 57 313 3.5 9.6 0.00 0.00 0.00 82 1016.0
20260509160421 56 282 1.7 9.6 0.00 0.00 0.00 83 1016.0
20260509155923 56 205 5.2 7.8 0.00 0.00 0.00 84 1016.1
20260509155428 56 293 2.6 7.0 0.00 0.00 0.00 84 1016.1
20260509154935 56 222 2.6 7.8 0.00 0.00 0.00 85 1016.1
20260509154423 55 210 2.6 6.1 0.00 0.00 0.00 85 1016.0
20260509153930 55 205 2.6 9.6 0.00 0.00 0.00 85 1015.9
20260509153437 55 210 3.5 7.0 0.00 0.00 0.00 85 1015.9
20260509152925 55 235 2.6 7.8 0.00 0.00 0.00 85 1015.9
20260509152426 55 231 1.7 7.8 0.00 0.00 0.00 85 1015.8
20260509151959 55 261 3.5 7.8 0.00 0.00 0.00 85 1015.9
20260509151455 55 244 2.6 7.8 0.00 0.00 0.00 85 1016.0
20260509150938 55 234 4.3 7.8 0.00 0.00 0.00 85 1016.0
20260509150424 55 195 3.5 7.0 0.00 0.00 0.00 86 1016.0
20260509145950 55 290 1.7 9.6 0.00 0.00 0.00 86 1016.0
20260509145431 55 237 3.5 9.6 0.00 0.00 0.00 86 1016.0
20260509144935 55 235 2.6 7.0 0.00 0.00 0.00 86 1016.0
20260509144439 54 233 2.6 6.1 0.00 0.00 0.00 86 1015.9
20260509143946 54 210 2.6 7.8 0.00 0.00 0.00 86 1015.9
20260509143433 54 222 3.5 7.8 0.00 0.00 0.00 86 1015.8
20260509142941 54 186 3.5 6.1 0.00 0.00 0.00 86 1015.9
20260509142426 54 213 3.5 6.1 0.00 0.00 0.00 86 1015.9
20260509141928 54 139 0.9 6.1 0.00 0.00 0.00 87 1015.8
20260509141434 54 155 3.5 6.1 0.00 0.00 0.00 87 1015.8
20260509140938 54 214 1.7 4.3 0.00 0.00 0.00 86 1015.7
20260509140426 54 231 1.7 4.3 0.00 0.00 0.00 86 1015.7
20260509135931 54 235 2.6 7.0 0.00 0.00 0.00 86 1015.6
20260509135439 54 216 3.5 7.0 0.00 0.00 0.00 86 1015.6
20260509134924 54 244 3.5 7.8 0.00 0.00 0.00 87 1015.4
20260509134427 54 215 2.6 5.2 0.00 0.00 0.00 87 1015.5
20260509133934 54 249 1.7 5.2 0.00 0.00 0.00 87 1015.5
20260509133422 54 163 0.9 7.0 0.00 0.00 0.00 87 1015.5
20260509132928 54 231 3.5 6.1 0.00 0.00 0.00 87 1015.5
20260509132436 54 206 2.6 6.1 0.00 0.00 0.00 87 1015.5
20260509131922 54 186 0.9 4.3 0.00 0.00 0.00 87 1015.5
20260509131427 54 209 1.7 4.3 0.00 0.00 0.00 87 1015.4
20260509130933 54 339 0.9 6.1 0.00 0.00 0.00 87 1015.5
20260509130437 53 301 1.7 6.1 0.00 0.00 0.00 87 1015.4
20260509125923 53 211 1.7 7.8 0.00 0.00 0.00 87 1015.3
20260509125430 53 171 2.6 5.2 0.00 0.00 0.00 87 1015.3
20260509124938 53 17 1.7 6.1 0.00 0.00 0.00 87 1015.3
20260509124444 53 219 2.6 5.2 0.00 0.00 0.00 87 1015.2
20260509123959 53 360 0.9 3.5 0.00 0.00 0.00 87 1015.2
20260509123447 53 75 1.7 5.2 0.00 0.00 0.00 87 1015.2
20260509122958 53 230 2.6 6.1 0.00 0.00 0.00 87 1015.3
20260509122453 53 134 1.7 7.8 0.00 0.00 0.00 87 1015.3
20260509121939 53 240 2.6 7.8 0.00 0.00 0.00 87 1015.3
20260509121428 53 349 1.7 5.2 0.00 0.00 0.00 87 1015.3
20260509120956 53 83 1.7 5.2 0.00 0.00 0.00 87 1015.3
20260509120444 53 102 3.5 5.2 0.00 0.00 0.00 87 1015.3
20260509115926 53 330 2.6 5.2 0.00 0.00 0.00 87 1015.3
20260509115431 53 38 1.7 5.2 0.00 0.00 0.00 87 1015.3
20260509114938 53 112 2.6 6.1 0.00 0.00 0.00 87 1015.3
20260509114426 53 339 3.5 6.1 0.00 0.00 0.00 87 1015.3
20260509113935 53 109 4.3 6.1 0.00 0.00 0.00 87 1015.3
20260509113422 53 289 0.9 3.5 0.00 0.00 0.00 87 1015.4
20260509112929 53 134 1.7 5.2 0.00 0.00 0.00 87 1015.4
20260509112431 53 219 2.6 5.2 0.00 0.00 0.00 87 1015.4
20260509111936 53 75 3.5 4.3 0.00 0.00 0.00 87 1015.3
20260509111422 53 34 1.7 5.2 0.00 0.00 0.00 87 1015.3
20260509110931 53 337 2.6 5.2 0.00 0.00 0.00 87 1015.4
20260509110434 53 8 1.7 5.2 0.00 0.00 0.00 87 1015.4
20260509105921 53 81 1.7 8.7 0.00 0.00 0.00 87 1015.4
20260509105427 53 302 2.6 8.7 0.00 0.00 0.00 87 1015.4
20260509104931 53 22 0.9 4.3 0.00 0.00 0.00 87 1015.4
20260509104432 53 74 0.9 3.5 0.00 0.00 0.00 86 1015.4
20260509103938 53 268 2.6 3.5 0.00 0.00 0.00 86 1015.4
20260509103424 53 134 0.9 5.2 0.00 0.00 0.00 86 1015.5
20260509102932 53 196 1.7 7.8 0.00 0.00 0.00 86 1015.5
20260509102440 53 45 2.6 7.8 0.00 0.00 0.00 86 1015.4
20260509101927 53 233 2.6 7.0 0.00 0.00 0.00 86 1015.5
20260509101434 53 107 3.5 7.0 0.00 0.00 0.00 86 1015.5
20260509100936 53 253 2.6 12.2 0.00 0.00 0.00 86 1015.6
20260509100452 53 134 3.5 9.6 0.00 0.00 0.00 86 1015.5
20260509095938 53 231 4.3 9.6 0.00 0.00 0.00 86 1015.5
20260509095425 53 222 1.7 4.3 0.00 0.00 0.00 86 1015.5
20260509094952 53 45 0.9 3.5 0.00 0.00 0.00 85 1015.6
20260509094437 53 268 0.9 4.3 0.00 0.00 0.00 86 1015.6
20260509093922 53 58 1.7 7.0 0.00 0.00 0.00 85 1015.7
20260509093422 53 224 3.5 7.0 0.00 0.00 0.00 85 1015.8
20260509092928 53 116 0.9 3.5 0.00 0.00 0.00 85 1015.8
20260509092434 53 192 1.7 7.8 0.00 0.00 0.00 85 1015.9
20260509091940 53 231 3.5 7.8 0.00 0.00 0.00 85 1015.9
20260509091426 53 177 0.9 5.2 0.00 0.00 0.00 85 1015.8
20260509090932 53 97 2.6 5.2 0.00 0.00 0.00 85 1015.8
20260509090438 53 94 2.6 3.5 0.00 0.00 0.00 85 1015.6
20260509085926 53 73 1.7 3.5 0.00 0.00 0.00 85 1015.6
20260509085430 53 75 1.7 3.5 0.00 0.00 0.00 85 1015.5
20260509084938 53 88 1.7 3.5 0.00 0.00 0.00 85 1015.6
20260509084454 53 151 1.7 3.5 0.00 0.00 0.00 85 1015.7
20260509083922 53 111 2.6 3.5 0.00 0.00 0.00 85 1015.7
20260509083430 53 163 1.7 3.5 0.00 0.00 0.00 85 1015.7
20260509082937 53 62 2.6 4.3 0.00 0.00 0.00 85 1015.8
20260509082456 53 45 2.6 4.3 0.00 0.00 0.00 85 1015.8
20260509081937 53 163 1.7 2.6 0.00 0.00 0.00 85 1015.9
20260509081444 53 212 0.9 2.6 0.00 0.00 0.00 85 1015.9
20260509080958 53 41 1.7 2.6 0.00 0.00 0.00 85 1015.9
20260509080423 53 141 1.7 5.2 0.00 0.00 0.00 84 1015.9
20260509075950 53 278 1.7 5.2 0.00 0.00 0.00 84 1015.9